Regional Weather Roundup
Issued by NWS

Home | Current Version | Previous Version | Graphics & Text | Print | Product List | Glossary On
Versions: 1 2 3 4 5 6 7 8 9 10 11 12 13 14 15 16 17 18 19 20 21 22 23 24 25 26 27 28 29 30 31 32 33 34 35 36 37 38 39 40 41 42 43 44 45 46 47 48 49 50
600
ASUS43 KLSX 290407
RWRMO

WEATHER SUMMARY FOR MISSOURI
NATIONAL WEATHER SERVICE SPRINGFIELD MO
1100 PM CDT THU APR 28 2016

NOTE: "FAIR" INDICATES FEW OR NO CLOUDS BELOW 12,000 FEET WITH NO
       SIGNIFICANT WEATHER AND/OR OBSTRUCTIONS TO VISIBILITY.
       CURRENT SKY AND/OR WEATHER CONDITIONS ARE NOT AVAILABLE FOR
       CHILLICOTHE AND FARMINGTON.

MOZ001>031-035>038-043-044-053-054-290500-
...NORTHERN AND WESTERN MISSOURI...

CITY           SKY/WX    TMP DP  RH WIND       PRES   REMARKS
KANSAS CTY INT CLOUDY    51  46  83 N7        30.06S
KANSAS C DTWN  CLEAR     53  46  77 N5        30.06R
LEE`S SUMMIT   CLOUDY    50  45  83 N7        30.05S
ST JOSEPH      CLOUDY    51  45  79 N8        30.08R
CHILLICOTHE      N/A     53  47  79 CALM      30.07R
KIRKSVILLE     CLOUDY    53  45  74 NW5       30.04S

$$
MOZ066>068-077>081-088>096-101>105-290500-
...SOUTHWEST MISSOURI...

CITY           SKY/WX    TMP DP  RH WIND       PRES   REMARKS
SPRINGFIELD    CLEAR     60  47  61 NE7       29.99S
JOPLIN         CLOUDY    59  50  72 E6        29.99R

$$
MOZ032>034-039>042-045>050-055>058-069>072-290500-
...CENTRAL MISSOURI...

CITY           SKY/WX    TMP DP  RH WIND       PRES   REMARKS
COLUMBIA       CLEAR     52  48  86 N5        30.03S
JEFFERSON CITY CLEAR     55  48  77 CALM      30.03S
ROLLA          CLEAR     53  49  86 NE7       30.01R
SEDALIA        CLEAR     53  48  83 N5        30.05S
WARRENSBURG    CLEAR     50  45  81 CALM      30.05R
OSAGE BEACH    CLEAR     55  43  62 N6        30.03R

$$
MOZ051-052-059>065-290500-
...EAST CENTRAL MISSOURI...

CITY           SKY/WX    TMP DP  RH WIND       PRES   REMARKS
ST LOUIS INTL  CLEAR     59  49  69 W3        30.02R
SPIRIT OF STL  CLEAR     56  51  84 CALM      30.02R
ST CHARLES     CLEAR     56  51  84 CALM      30.01S

$$
MOZ072>076-082>087-097>100-106>115-290500-
...SOUTH CENTRAL AND SOUTHEAST MISSOURI...

CITY           SKY/WX    TMP DP  RH WIND       PRES   REMARKS
CAPE GIRARDEAU CLEAR     60  54  80 CALM      29.98S
FARMINGTON     CLEAR     57  49  74 N3        30.02R
POPLAR BLUFF   CLEAR     61  57  87 CALM      29.98S
WEST PLAINS    CLEAR     58  45  62 CALM      30.01F

$$



USA.gov is the U.S. government's official web portal to all federal, state and local government web resources and services.